This is the latest recevied weather packets stored in our database for station/object KB1RMA-4. If no packets are shown the sender has not sent any weather packets the latest 10 day(s).
| Time | Temp. | Humidity | Pressure | Rain* | Wind** | Luminosity | Snow |
|---|---|---|---|---|---|---|---|
| 1787491439 | 18.89° C | 93% | 1011.9 hPa | 0 mm | - | 161 W/m² | - |
| 1787491135 | 18.89° C | 93% | 1011.8 hPa | 0 mm | - | 121 W/m² | - |
| 1787490831 | 18.89° C | 93% | 1011.9 hPa | 0 mm | - | 134 W/m² | - |
| 1787490531 | 18.89° C | 94% | 1012 hPa | 0 mm | - | 95 W/m² | - |
| 1787490230 | 18.89° C | 94% | 1012 hPa | 0 mm | - | 90 W/m² | - |
| 1787489923 | 18.89° C | 94% | 1012.1 hPa | 0 mm | - | 60 W/m² | - |
| 1787489619 | 18.89° C | 94% | 1012.2 hPa | 0 mm | - | 69 W/m² | - |
| 1787489316 | 18.89° C | 95% | 1012.2 hPa | 0 mm | - | 57 W/m² | - |
| 1787489011 | 18.89° C | 95% | 1012.1 hPa | 0 mm | - | 72 W/m² | - |
| 1787488706 | 18.89° C | 95% | 1012.2 hPa | 0 mm | - | 57 W/m² | - |
| 1787488403 | 18.89° C | 95% | 1012 hPa | 0 mm | - | 87 W/m² | - |
| 1787488100 | 18.33° C | 95% | 1012.2 hPa | 0 mm | - | 100 W/m² | - |
| 1787487795 | 18.33° C | 95% | 1012.3 hPa | 0 mm | - | 47 W/m² | - |
| 1787487492 | 18.33° C | 95% | 1012.4 hPa | 0 mm | - | 32 W/m² | - |
| 1787487188 | 18.33° C | 96% | 1012.4 hPa | 0 mm | - | 34 W/m² | - |
| 1787486883 | 18.33° C | 96% | 1012.3 hPa | 0 mm | - | 25 W/m² | - |
| 1787486583 | 18.33° C | 96% | 1012.5 hPa | 0 mm | - | 21 W/m² | - |
| 1787486282 | 18.33° C | 96% | 1012.5 hPa | 0 mm | - | 19 W/m² | - |
| 1787485977 | 18.33° C | 96% | 1012.4 hPa | 0 mm | - | 20 W/m² | - |
| 1787485673 | 18.33° C | 96% | 1012.4 hPa | 0 mm | - | 20 W/m² | - |
| 1787485368 | 18.33° C | 96% | 1012.4 hPa | 0 mm | - | 25 W/m² | - |
| 1787485064 | 18.33° C | 96% | 1012.3 hPa | 0 mm | - | 31 W/m² | - |
| 1787484761 | 18.33° C | 96% | 1012.4 hPa | 0 mm | - | 19 W/m² | - |
| 1787484457 | 18.33° C | 96% | 1012.2 hPa | 0 mm | - | 18 W/m² | - |
| 1787484152 | 18.33° C | 97% | 1012.2 hPa | 0 mm | - | 29 W/m² | - |
* Rain latest hour (hover to see other rain measurements)
** Current wind speed in m/s (hover to see current wind gust speed)